This is the latest recevied weather packets stored in our database for station/object KT2UU-13. If no packets are shown the sender has not sent any weather packets the latest 10 day(s).
| Time | Temp. | Humidity | Pressure | Rain* | Wind** | Luminosity | Snow |
|---|---|---|---|---|---|---|---|
| 1778157633 | 16.11° C | 99% | 1012.8 hPa | 0 mm | - | - | - |
| 1778157331 | 16.11° C | 99% | 1012.7 hPa | 0 mm | - | - | - |
| 1778157028 | 16.67° C | 99% | 1012.3 hPa | 0 mm | - | - | - |
| 1778156723 | 16.67° C | 99% | 1012 hPa | 0 mm | - | - | - |
| 1778156419 | 16.67° C | 99% | 1012.3 hPa | 0 mm | - | - | - |
| 1778156115 | 16.67° C | 99% | 1012.3 hPa | 0 mm | - | - | - |
| 1778155811 | 16.67° C | 99% | 1012.6 hPa | 3.05 mm | - | - | - |
| 1778155507 | 16.67° C | 99% | 1012.8 hPa | 6.1 mm | - | - | - |
| 1778155204 | 16.67° C | 99% | 1011.8 hPa | 6.1 mm | - | - | - |
| 1778154900 | 16.67° C | 99% | 1012.4 hPa | 7.87 mm | - | - | - |
| 1778154596 | 16.67° C | 99% | 1012.9 hPa | 7.87 mm | - | - | - |
| 1778154291 | 16.67° C | 99% | 1013 hPa | 4.32 mm | - | - | - |
| 1778153984 | 16.67° C | 99% | 1013.1 hPa | 1.27 mm | - | - | - |
| 1778153681 | 16.67° C | 99% | 1012.8 hPa | 1.78 mm | - | - | - |
| 1778153378 | 16.67° C | 99% | 1012.7 hPa | 3.05 mm | - | - | - |
| 1778153075 | 16.67° C | 99% | 1012.4 hPa | 4.32 mm | - | - | - |
| 1778152772 | 16.67° C | 99% | 1012.1 hPa | 10.67 mm | - | - | - |
| 1778152470 | 16.67° C | 99% | 1012 hPa | 22.86 mm | - | - | - |
| 1778152166 | 16.67° C | 99% | 1012.4 hPa | 10.67 mm | - | - | - |
| 1778151862 | 16.67° C | 99% | 1013 hPa | 3.05 mm | - | - | - |
| 1778151559 | 16.67° C | 99% | 1012.5 hPa | 1.27 mm | - | - | - |
| 1778151256 | 16.67° C | 99% | 1012 hPa | 0 mm | - | - | - |
| 1778150953 | 16.67° C | 99% | 1011.5 hPa | 0 mm | - | - | - |
| 1778150649 | 16.67° C | 99% | 1011.3 hPa | 0 mm | - | - | - |
| 1778150345 | 16.67° C | 99% | 1011.2 hPa | 0 mm | - | - | - |
* Rain latest hour (hover to see other rain measurements)
** Current wind speed in m/s (hover to see current wind gust speed)